Regional Weather Roundup
Issued by NWS

Home | Current Version | Previous Version | Graphics & Text | Print | Product List | Glossary On
Versions: 1 2 3 4 5 6 7 8 9 10 11 12 13 14 15 16 17 18 19 20 21 22 23 24 25 26 27 28 29 30 31 32 33 34 35 36 37 38 39 40 41 42 43 44 45 46 47 48 49 50
000
ASUS43 KLSX 110357
RWRMO

WEATHER SUMMARY FOR MISSOURI
NATIONAL WEATHER SERVICE SPRINGFIELD MO
1000 PM CST SAT DEC 10 2016

NOTE: "FAIR" INDICATES FEW OR NO CLOUDS BELOW 12,000 FEET WITH NO
       SIGNIFICANT WEATHER AND/OR OBSTRUCTIONS TO VISIBILITY.
       CURRENT SKY AND/OR WEATHER CONDITIONS ARE NOT AVAILABLE FOR
       CHILLICOTHE AND FARMINGTON.

MOZ001>031-035>038-043-044-053-054-110500-
...NORTHERN AND WESTERN MISSOURI...

CITY           SKY/WX    TMP DP  RH WIND       PRES   REMARKS
KANSAS CTY INT NOT AVBL
LEE`S SUMMIT   CLOUDY    38  23  55 SE9       30.02S
ST JOSEPH      CLOUDY    35  19  52 SE8       30.00F WCI  29
CHILLICOTHE      N/A     34  19  54 SE7       30.06F WCI  28

$$
MOZ066>068-077>081-088>096-101>105-110500-
...SOUTHWEST MISSOURI...

CITY           SKY/WX    TMP DP  RH WIND       PRES   REMARKS
SPRINGFIELD    CLOUDY    37  19  48 S22G30    30.06F WCI  26

$$
MOZ032>034-039>042-045>050-055>058-069>072-110500-
...CENTRAL MISSOURI...

CITY           SKY/WX    TMP DP  RH WIND       PRES   REMARKS
COLUMBIA       NOT AVBL
JEFFERSON CITY CLOUDY    36  16  44 SE8       30.14F WCI  30
SEDALIA        CLOUDY    38  18  44 S13       30.07F WCI  30
WARRENSBURG    CLOUDY    37  21  52 SE10      30.04S

$$
MOZ051-052-059>065-110500-
...EAST CENTRAL MISSOURI...

CITY           SKY/WX    TMP DP  RH WIND       PRES   REMARKS
ST LOUIS INTL  CLOUDY    36  18  48 S18G25    30.20F WCI  26

$$
MOZ072>076-082>087-097>100-106>115-110500-
...SOUTH CENTRAL AND SOUTHEAST MISSOURI...

CITY           SKY/WX    TMP DP  RH WIND       PRES   REMARKS
CAPE GIRARDEAU NOT AVBL
POPLAR BLUFF   CLOUDY    35  26  69 CALM      30.31F

$$



USA.gov is the U.S. government's official web portal to all federal, state and local government web resources and services.